Temperature
17 18 18 18 17 17 17 17 17 17 17 16 16 16 16 17 17 17 17 17 17 17 17 18 18 18 18 17 17 17 17 17 17 17 17 17 17 17 17 17 17 17 17
17 17 17 17 17 17 17 17 17 17 17 17 16 16 16 16 16 16 16 17 17 17 17 17 17 17 17 17 17 17 17 17 17 17 17 17 17 17 17 17 17 17 17
17 17 17 17 17 17 17 17 17 17 17 17 16 16 16 16 16 16 16 16 16 17 17 17 17 17 17 17 17 17 17 17 17 17 17 17 17 17 17 16 17 17 17
17 17 17 17 17 17 17 17 17 17 17 17 16 16 15 16 16 16 16 16 16 17 17 17 17 17 17 17 17 17 17 17 17 17 17 17 16 16 16 16 16 17 17
18 17 17 17 17 17 17 17 17 17 17 16 16 16 15 15 16 16 16 16 16 17 17 17 17 17 16 16 16 16 16 16 17 17 17 17 17 16 16 16 16 16 16
18 18 17 17 17 17 17 17 17 17 16 16 16 16 15 15 15 16 16 16 16 17 17 17 17 17 16 16 16 16 16 16 16 16 17 17 17 17 17 16 16 16 16
18 18 17 17 17 17 17 17 17 16 16 16 16 15 15 15 15 15 15 16 16 16 16 16 16 16 16 16 16 16 16 16 16 16 16 16 17 17 17 16 16 16 16
18 18 18 17 17 17 17 17 17 16 16 16 16 15 15 15 15 15 15 15 16 16 16 16 16 16 16 16 16 16 16 16 16 16 16 16 16 16 16 16 16 15 15
18 18 17 17 17 17 17 17 17 17 16 16 16 16 16 15 15 15 15 15 15 15 16 16 16 16 16 16 16 16 16 16 16 16 16 16 16 16 15 15 16 15 15
17 17 17 17 16 16 16 16 17 17 16 16 16 16 16 16 16 15 15 15 15 15 15 15 16 16 16 16 16 16 16 16 16 16 16 15 15 15 15 15 15 15 15
17 17 17 16 16 16 16 16 16 16 16 16 16 16 16 16 16 16 16 15 15 15 15 15 15 16 16 16 16 16 16 16 16 16 16 16 16 15 15 15 14 15 15
17 17 16 16 16 16 15 15 16 16 16 16 16 16 16 16 16 16 15 16 16 16 15 15 15 15 16 16 16 15 15 16 16 16 16 16 16 15 15 14 14 14 14
17 16 16 16 16 15 15 15 15 15 15 16 16 15 15 15 16 16 16 15 15 15 15 15 15 15 15 16 16 16 16 16 16 16 16 15 15 15 15 15 14 14 14
16 16 16 15 15 15 15 15 15 15 15 15 15 15 15 15 15 15 15 15 15 15 15 16 15 16 16 16 16 16 16 16 16 16 15 15 15 15 15 15 15 14 14
16 16 16 15 15 15 15 15 15 14 14 15 15 14 15 15 15 15 15 15 15 15 16 16 16 16 16 16 16 16 16 16 16 15 15 15 15 15 14 14 15 14 14
16 16 16 15 15 15 15 14 14 14 14 14 14 14 14 14 14 15 15 15 15 15 16 17 16 16 16 16 16 16 16 16 16 15 15 15 15 14 14 14 15 14 14
16 16 15 15 15 15 15 15 15 14 14 14 14 13 13 13 14 14 14 14 14 15 15 16 16 16 16 16 16 16 16 16 15 15 15 15 15 14 14 14 14 14 14
16 15 15 15 15 15 15 15 15 14 14 13 13 13 13 13 13 13 13 14 14 14 15 16 16 16 16 16 16 16 15 15 15 15 15 15 15 14 14 14 14 14 15
16 15 15 15 15 15 15 15 15 14 14 14 13 13 13 13 13 13 13 13 13 14 14 15 15 15 15 16 16 15 15 15 15 15 15 15 15 15 14 14 14 15 15
16 16 15 15 15 15 15 15 15 14 14 14 13 13 13 13 13 13 13 13 13 13 14 14 14 14 15 15 15 15 15 15 15 14 14 14 14 14 14 14 14 14 15
16 16 16 15 15 15 14 15 15 14 14 14 14 14 13 13 13 12 12 12 12 12 12 13 13 14 14 15 15 15 14 14 14 14 14 14 14 14 14 14 14 14 14
16 16 16 15 15 15 14 14 15 15 14 14 14 14 13 13 13 12 12 12 12 12 12 12 13 13 13 13 14 13 13 13 13 14 14 14 14 14 14 14 14 14 14
16 15 15 15 15 15 15 14 14 14 14 14 14 14 14 13 13 13 12 12 12 12 12 12 12 12 12 13 13 13 13 13 14 14 13 13 13 14 14 14 14 14 14
15 15 15 15 15 15 15 14 14 14 14 14 14 14 14 13 13 13 13 12 12 12 12 12 12 12 12 13 13 13 13 13 13 13 13 13 13 14 14 13 13 13 13
14 14 14 14 14 14 14 14 14 14 14 14 14 14 14 13 13 13 13 13 12 12 12 12 12 12 12 13 13 13 13 13 13 14 13 13 13 13 13 13 13 13 13
12 13 13 13 14 14 14 14 14 14 14 13 13 13 13 13 13 13 13 13 13 13 13 12 12 12 12 12 13 13 13 13 13 13 13 13 13 13 13 13 14 13 13
Wind_Speed
6 4 4 6 7 6 4 3 3 4 7 8 7 7 5 5 8 8 9 9 6 5 5 6 6 6 6 7 9 10 10 10 10 9 8 7 6 5 4 3 4 5 4
6 4 5 4 6 7 6 5 6 5 5 4 5 6 5 5 6 7 9 11 11 9 7 8 8 8 8 9 10 10 9 9 8 7 7 6 5 5 5 3 4 4 4
10 7 6 6 6 8 7 5 6 6 6 4 5 5 5 5 5 6 7 8 10 12 10 9 9 10 10 10 10 10 8 7 7 6 6 5 4 4 4 3 3 3 2
10 7 6 7 8 8 6 5 5 5 5 4 3 3 3 4 4 5 5 5 7 9 12 13 11 11 11 10 10 9 8 7 6 5 4 3 3 3 4 4 2 1 1
9 5 5 5 8 6 5 6 4 4 5 5 4 3 3 4 3 4 4 4 6 8 10 12 14 15 11 9 8 8 7 6 6 4 3 2 2 3 4 5 3 1 2
7 5 3 4 5 5 5 5 5 3 4 5 5 3 3 4 3 3 3 4 5 6 8 8 9 11 12 12 9 6 7 7 6 5 3 2 2 3 4 4 3 3 2
5 4 4 5 5 6 7 7 5 4 3 3 4 3 3 3 2 2 2 3 3 5 6 5 5 6 8 10 11 10 8 8 9 8 6 4 3 2 3 3 3 4 4
5 4 5 5 4 4 6 7 6 4 3 3 4 4 1 3 3 2 1 3 4 4 5 6 6 6 6 6 8 10 11 9 9 10 9 7 5 2 2 2 1 1 2
7 5 5 5 5 5 6 7 7 7 5 4 3 4 4 4 2 3 2 2 3 3 3 6 8 8 7 6 5 7 9 10 7 7 9 8 7 6 4 4 3 3 3
5 6 5 5 5 4 5 6 7 5 7 6 3 2 2 4 4 2 3 2 3 4 5 4 8 9 8 7 6 6 7 8 6 5 7 9 9 9 9 8 6 5 6
4 5 5 5 6 4 5 6 6 6 5 6 5 3 2 1 2 3 3 3 2 3 4 5 6 8 10 10 8 6 6 6 6 6 6 7 8 8 8 8 6 4 5
2 4 4 5 6 6 6 6 7 7 6 6 5 4 4 3 3 3 2 3 4 4 4 4 4 7 11 12 10 9 7 5 5 5 6 6 6 6 6 6 6 5 5
3 5 4 4 5 6 7 6 6 7 8 8 7 5 5 5 4 4 3 2 3 3 3 3 5 8 12 13 12 12 9 7 6 5 4 4 4 4 4 4 4 4 4
5 5 4 5 5 6 6 6 5 6 6 8 8 9 6 7 6 5 5 4 3 3 4 5 4 6 11 14 15 14 11 9 8 6 5 3 2 2 2 2 3 4 4
4 5 5 5 5 5 6 6 6 7 7 7 7 8 7 6 6 6 6 6 6 6 7 7 6 6 10 13 15 14 13 12 11 9 7 5 2 1 1 1 2 5 6
5 6 5 4 4 4 4 5 4 5 6 6 6 7 8 6 6 6 6 6 7 7 7 7 7 5 7 10 15 15 15 13 13 11 9 7 5 4 4 3 3 4 6
6 7 6 5 5 5 5 5 5 4 5 5 5 6 8 8 7 6 6 5 6 5 6 4 3 4 7 7 8 12 14 13 13 14 13 11 9 7 6 5 4 4 4
6 7 7 6 6 6 5 5 5 5 5 5 6 6 7 7 8 7 7 6 5 5 5 4 4 3 5 7 7 6 8 11 13 15 16 15 13 10 8 7 6 5 3
7 7 7 7 7 7 6 6 5 5 5 6 5 6 6 6 6 6 7 7 5 4 3 3 3 2 2 3 4 4 4 5 9 13 16 16 15 12 10 9 8 7 5
7 8 7 8 8 8 7 7 6 5 5 5 4 4 5 6 6 7 7 8 7 5 3 3 3 2 2 2 3 4 4 5 5 8 12 13 15 15 14 12 10 9 7
7 7 7 7 7 7 8 8 7 6 6 5 4 4 5 7 9 7 5 6 6 5 4 3 3 3 3 3 5 5 6 4 4 4 4 6 9 10 12 14 13 12 11
6 5 5 6 7 7 11 14 10 7 7 6 6 5 5 7 10 11 10 10 9 6 5 4 2 2 3 3 4 5 5 4 4 5 6 6 4 7 8 13 16 15 14
4 5 5 6 6 8 11 13 14 8 7 7 7 6 5 7 10 7 10 13 12 12 10 6 5 5 5 5 5 7 8 8 8 5 5 5 4 7 8 14 18 18 17
2 3 4 4 4 6 9 10 12 8 7 7 7 7 7 7 7 9 8 9 9 10 12 9 7 8 8 7 8 9 9 9 4 3 6 5 5 6 6 13 18 21 21
4 2 2 1 1 3 6 9 8 5 5 6 5 5 6 7 11 12 9 8 7 8 11 13 13 14 15 15 11 6 6 6 6 5 6 6 4 4 3 5 14 21 23
4 4 5 4 2 2 3 5 7 3 4 4 3 4 5 6 9 10 9 8 8 7 7 8 9 10 8 6 7 7 6 6 4 4 5 6 4 4 3 3 3 9 14
Wind_Direction
173 175 178 190 199 204 201 156 138 109 109 117 115 114 106 101 87 69 52 62 83 110 135 147 143 128 125 142 141 141 150 155 153 155 159 161 157 151 146 140 114 104 89
183 177 189 203 204 204 203 175 158 135 124 121 118 128 135 129 108 85 61 54 62 82 106 124 131 129 128 129 128 126 134 139 141 146 151 154 157 159 155 152 117 99 81
183 186 193 205 209 202 188 162 148 131 124 120 120 131 149 161 138 107 83 60 53 61 83 104 117 122 121 122 122 123 127 130 129 128 134 142 150 161 163 164 134 100 66
180 178 181 190 192 176 153 146 147 136 131 129 121 105 114 134 142 126 103 79 67 62 62 70 85 104 108 109 118 122 128 130 130 133 143 154 158 159 166 162 143 94 358
185 167 174 181 178 164 153 152 150 151 147 146 138 115 104 121 156 130 110 112 104 86 72 64 64 68 79 89 107 113 120 126 131 137 149 160 163 165 157 151 150 199 311
190 166 162 173 173 169 157 143 143 153 159 159 139 111 89 107 132 138 147 141 137 120 100 82 68 59 59 59 65 96 112 114 109 112 125 144 157 177 178 170 182 200 260
186 159 151 160 180 184 169 147 134 146 149 132 101 72 21 35 128 156 144 147 150 146 137 121 98 80 63 54 50 62 85 93 83 75 76 88 108 151 182 196 216 212 230
172 171 164 160 181 176 160 160 147 142 153 158 136 124 72 353 329 323 149 167 174 152 147 160 138 115 102 77 56 54 52 66 72 65 64 66 68 100 177 192 212 194 235
188 182 170 156 164 173 183 179 166 154 161 179 166 148 153 197 247 307 280 173 176 156 141 156 162 148 136 116 83 62 58 54 61 58 61 65 64 65 85 98 89 79 71
195 191 178 155 159 172 191 195 186 173 158 168 174 188 165 159 155 216 302 276 216 190 162 151 165 170 162 144 125 97 76 66 68 71 63 65 68 70 70 67 65 68 74
199 198 185 161 160 177 195 201 199 186 169 169 165 165 150 129 122 143 213 255 257 240 196 166 166 172 171 160 151 139 116 94 81 78 67 59 58 62 62 55 44 50 75
206 206 189 173 169 183 195 201 204 194 186 174 170 167 162 162 166 145 169 219 225 237 215 188 177 178 181 175 171 166 154 134 112 93 78 68 59 52 48 39 25 26 53
210 217 198 187 178 189 197 196 199 204 194 184 181 188 190 183 163 153 159 214 227 234 198 209 202 185 185 185 181 176 173 165 150 132 114 91 69 54 45 31 10 1 20
207 204 194 194 190 190 197 198 201 206 202 200 197 195 201 200 187 178 174 178 212 235 222 221 206 197 186 186 189 182 181 182 174 167 159 138 92 48 36 25 6 355 358
180 162 163 177 185 188 193 194 203 208 205 206 205 204 206 205 199 195 189 186 190 207 225 218 208 204 189 185 188 186 187 190 189 188 181 175 174 193 236 272 333 342 339
167 160 175 194 205 195 180 180 190 210 214 211 199 201 211 212 205 200 198 198 204 205 219 216 206 196 183 188 190 188 192 197 197 195 192 194 203 214 226 244 289 323 326
178 181 191 209 223 211 188 174 175 185 214 233 225 212 218 210 206 196 187 187 195 192 209 223 196 190 177 179 178 187 195 199 201 203 203 205 211 219 226 235 257 287 309
201 196 191 195 207 210 206 199 197 195 213 233 234 224 223 214 202 191 185 179 178 184 185 192 192 182 188 186 170 176 186 197 202 208 209 210 213 219 226 235 251 265 282
211 210 196 196 202 208 217 222 216 219 231 241 238 226 219 201 192 181 178 175 168 163 155 164 185 184 182 168 160 179 189 201 210 216 215 217 218 221 227 234 243 255 257
214 217 213 210 205 206 214 225 221 228 244 255 249 222 201 188 178 169 173 172 164 153 145 139 150 175 187 158 157 177 202 215 220 215 213 214 219 223 227 234 240 245 244
230 227 223 224 213 201 208 210 211 215 225 240 243 217 191 185 181 176 168 169 165 159 153 147 159 172 177 162 196 191 207 210 233 215 204 212 214 222 225 233 239 239 238
237 231 228 224 213 212 212 206 202 202 205 211 219 222 218 215 214 211 200 186 177 171 171 161 157 199 211 214 206 196 198 192 243 215 196 224 197 224 225 228 234 235 238
250 239 223 210 214 221 222 215 209 197 199 207 208 210 224 228 225 220 223 215 203 196 191 178 189 214 221 220 218 210 205 209 223 196 175 232 214 234 230 231 232 231 233
299 251 243 226 225 242 236 219 205 195 206 217 216 212 222 241 226 212 211 213 212 209 206 206 212 225 233 232 230 227 222 226 237 189 170 209 212 223 224 224 230 226 224
23 0 317 314 260 280 251 216 189 178 205 227 232 224 222 237 247 220 200 207 213 218 216 220 229 241 248 251 243 226 206 201 228 226 191 202 214 211 228 228 227 225 220
20 30 40 42 43 352 306 225 198 182 214 244 264 268 262 252 248 221 196 199 210 217 204 212 228 238 239 250 233 212 206 205 214 240 200 189 186 168 253 260 228 219 216
Height
1534 1536 1537 1538 1539 1540 1540 1540 1540 1541 1542 1543 1543 1543 1543 1543 1542 1541 1540 1540 1539 1540 1540 1541 1542 1543 1543 1544 1545 1546 1546 1547 1548 1548 1548 1549 1549 1549 1549 1549 1549 1548 1547
1534 1536 1537 1538 1539 1540 1541 1541 1540 1541 1543 1544 1544 1544 1544 1544 1543 1542 1541 1541 1541 1541 1541 1541 1542 1543 1544 1545 1545 1546 1547 1547 1548 1548 1548 1548 1548 1548 1548 1548 1548 1547 1547
1533 1535 1537 1538 1539 1540 1541 1542 1542 1541 1542 1544 1544 1544 1544 1545 1544 1543 1543 1543 1543 1543 1543 1543 1543 1544 1545 1545 1546 1546 1547 1547 1547 1547 1547 1547 1547 1547 1546 1547 1547 1547 1546
1532 1533 1535 1536 1538 1539 1540 1541 1542 1542 1542 1543 1544 1544 1544 1545 1545 1544 1545 1545 1545 1545 1545 1545 1546 1546 1546 1546 1546 1547 1547 1547 1547 1546 1546 1546 1546 1545 1545 1545 1546 1546 1546
1530 1532 1533 1534 1535 1537 1538 1540 1541 1542 1542 1542 1543 1544 1544 1545 1546 1545 1545 1546 1547 1547 1547 1547 1547 1548 1547 1548 1548 1547 1547 1547 1546 1546 1546 1545 1545 1545 1544 1544 1544 1545 1545
1529 1530 1532 1532 1534 1535 1536 1537 1539 1541 1542 1543 1543 1544 1544 1545 1546 1546 1546 1546 1547 1547 1547 1548 1548 1549 1549 1549 1549 1548 1547 1547 1547 1546 1546 1545 1544 1544 1544 1543 1543 1543 1544
1526 1528 1529 1530 1532 1533 1534 1535 1537 1538 1540 1541 1542 1544 1544 1544 1545 1546 1546 1546 1546 1546 1547 1548 1548 1549 1549 1549 1549 1549 1549 1548 1547 1547 1546 1545 1544 1544 1543 1542 1542 1543 1543
1524 1525 1526 1528 1529 1531 1531 1532 1533 1535 1537 1538 1540 1542 1543 1544 1544 1545 1545 1545 1545 1546 1547 1547 1548 1549 1549 1550 1550 1550 1550 1549 1548 1547 1546 1545 1544 1544 1543 1542 1542 1542 1542
1521 1522 1523 1524 1525 1526 1527 1528 1529 1531 1533 1535 1537 1539 1540 1540 1541 1543 1543 1544 1544 1545 1545 1547 1547 1548 1549 1550 1550 1550 1550 1549 1549 1548 1547 1546 1545 1544 1543 1543 1542 1542 1541
1518 1519 1520 1521 1522 1523 1524 1525 1526 1527 1529 1531 1533 1536 1538 1538 1539 1540 1542 1543 1543 1544 1544 1545 1546 1547 1548 1549 1550 1550 1550 1549 1549 1548 1547 1546 1545 1544 1543 1543 1542 1542 1540
1515 1515 1516 1517 1518 1519 1520 1521 1522 1523 1525 1527 1529 1532 1534 1536 1537 1538 1539 1540 1542 1542 1543 1543 1544 1546 1547 1547 1548 1549 1549 1549 1548 1548 1548 1547 1545 1544 1543 1543 1542 1541 1540
1512 1512 1512 1513 1514 1515 1515 1517 1518 1519 1521 1523 1525 1527 1530 1532 1533 1535 1537 1538 1539 1540 1541 1542 1542 1544 1545 1545 1546 1547 1547 1548 1548 1548 1547 1546 1545 1544 1543 1542 1541 1540 1539
1510 1509 1509 1509 1510 1510 1510 1511 1512 1514 1516 1518 1520 1522 1525 1527 1530 1532 1534 1535 1537 1538 1538 1539 1540 1541 1542 1543 1544 1544 1545 1546 1546 1546 1546 1545 1544 1543 1541 1540 1539 1538 1537
1507 1507 1506 1506 1507 1506 1506 1507 1508 1510 1512 1514 1516 1517 1520 1523 1525 1527 1529 1531 1533 1535 1535 1536 1537 1538 1540 1541 1542 1542 1542 1543 1544 1544 1544 1543 1543 1541 1540 1538 1537 1536 1535
1505 1504 1504 1504 1504 1503 1502 1503 1504 1505 1507 1509 1511 1513 1515 1518 1520 1522 1524 1526 1530 1531 1531 1532 1534 1535 1537 1538 1539 1539 1540 1540 1542 1542 1542 1541 1541 1540 1539 1537 1536 1535 1534
1504 1503 1503 1503 1502 1501 1500 1500 1500 1501 1503 1504 1505 1507 1509 1512 1514 1517 1519 1521 1524 1526 1527 1528 1531 1533 1534 1536 1537 1537 1538 1538 1539 1540 1540 1539 1539 1538 1537 1535 1534 1533 1532
1503 1503 1502 1502 1501 1500 1498 1498 1498 1498 1499 1500 1501 1502 1503 1505 1508 1511 1513 1516 1518 1521 1522 1524 1526 1528 1530 1532 1533 1535 1535 1536 1537 1538 1538 1537 1537 1536 1534 1533 1531 1530 1530
1501 1502 1501 1501 1500 1499 1498 1497 1497 1496 1496 1496 1496 1496 1497 1499 1501 1504 1507 1510 1513 1516 1518 1519 1521 1524 1526 1528 1529 1531 1532 1532 1533 1534 1534 1534 1534 1533 1531 1530 1529 1528 1527
1499 1500 1500 1499 1499 1498 1498 1497 1496 1495 1494 1493 1492 1492 1493 1495 1496 1499 1501 1504 1507 1510 1513 1515 1517 1520 1522 1523 1525 1526 1528 1529 1530 1530 1531 1531 1531 1530 1529 1528 1527 1525 1525
1497 1497 1497 1497 1497 1497 1497 1496 1495 1494 1493 1492 1491 1490 1491 1492 1494 1496 1497 1499 1501 1504 1507 1509 1512 1515 1517 1518 1520 1521 1523 1525 1526 1526 1527 1527 1528 1527 1526 1525 1524 1523 1522
1494 1495 1495 1495 1495 1495 1495 1495 1495 1494 1493 1493 1491 1491 1491 1491 1492 1494 1495 1496 1497 1498 1501 1504 1507 1510 1512 1513 1515 1518 1519 1521 1521 1522 1522 1522 1523 1523 1523 1522 1521 1520 1519
1490 1491 1492 1492 1492 1493 1493 1494 1494 1494 1493 1493 1492 1491 1491 1491 1492 1492 1493 1494 1495 1496 1497 1499 1501 1504 1507 1509 1511 1514 1515 1516 1516 1518 1517 1518 1518 1518 1518 1518 1517 1517 1516
1486 1487 1488 1488 1488 1489 1489 1490 1491 1492 1492 1492 1492 1491 1491 1491 1491 1491 1491 1492 1493 1493 1495 1496 1498 1500 1503 1505 1507 1509 1510 1510 1511 1513 1514 1513 1514 1514 1514 1514 1514 1513 1513
1482 1483 1483 1484 1485 1485 1486 1487 1488 1489 1489 1489 1490 1490 1489 1490 1490 1490 1490 1490 1490 1491 1491 1493 1495 1497 1499 1501 1502 1504 1505 1506 1507 1508 1509 1508 1509 1510 1511 1510 1510 1509 1509
1479 1479 1479 1480 1480 1481 1482 1483 1484 1484 1485 1486 1487 1487 1487 1488 1488 1489 1489 1489 1489 1489 1490 1490 1492 1494 1496 1497 1499 1500 1501 1501 1501 1502 1503 1504 1504 1504 1505 1506 1506 1506 1506
1477 1477 1476 1477 1477 1477 1478 1479 1479 1480 1481 1482 1483 1483 1484 1484 1485 1486 1486 1487 1487 1488 1489 1489 1490 1491 1492 1493 1495 1497 1497 1497 1497 1498 1499 1499 1499 1500 1500 1500 1501 1501 1501